Montana Department of Transportation

Main Content

Accidents and Incidents Report

Hourly Weather Roundup

ASUS45 KTFX 301610
RWRMT 
MONTANA REGIONAL WEATHER ROUNDUP
NATIONAL WEATHER SERVICE GREAT FALLS MT
1000 AM MDT TUE JUN 30 2015

NOTE: "FAIR" INDICATES FEW OR NO CLOUDS BELOW 12000 FEET WITH NO
SIGNIFICANT WEATHER AND/OR OBSTRUCTIONS TO VISIBILITY.

MTZ001.007-043-301700-
WEST OF THE DIVIDE
  
CITY           SKY/WX    TMP DP  RH WIND       PRES   REMARKS
KALISPELL      SUNNY     76  55  48 CALM      30.03F                  
MISSOULA       MOSUNNY   73  62  68 VRB5      30.08F                  
BUTTE          SUNNY     72  56  57 N5        30.21F                  
MULLAN PASS    SUNNY     66  52  60 VRB7      30.23S                  
EUREKA           N/A     63  59  88 CALM      30.09S                  
HAMILTON         N/A     75  61  60 S7        30.09F                  
RONAN            N/A     82  62  50 S2        30.08F                  
--------------------------------

MTZ008-052.055-301700-
SOUTHWEST MONTANA
  
CITY           SKY/WX    TMP DP  RH WIND       PRES   REMARKS
BOZEMAN        SUNNY     76  56  49 CALM      30.14F                  
DILLON         SUNNY     74  56  53 SW8       30.18S                  
W YELLOWSTONE  MOSUNNY   70  50  49 SE3       30.29S                  
THREE FORKS      N/A     76  51  41 SE1       30.10F                  
TWIN BRIDGES     N/A     73  56  55 E7        30.14S                  
--------------------------------

MTZ009-010-012-014-046-048-049-054-301700-
EAST SLOPES AND CENTRAL MONTANA
  
CITY           SKY/WX    TMP DP  RH WIND       PRES   REMARKS
CUT BANK       SUNNY     83  40  21 W20G28    29.99S                  
GREAT FALLS    SUNNY     83  56  39 SW15      30.00S                  
MALMSTROM AFB  SUNNY     82  55  38 W14       29.99F                  
HELENA         SUNNY     78  61  55 VRB5      30.08F                  
--------------------------------

MTZ011-013-016-021-045-047-050-051-301700-
NORTH CENTRAL MONTANA
  
CITY           SKY/WX    TMP DP  RH WIND       PRES   REMARKS
HAVRE          SUNNY     83  55  38 W8        29.89F                  
CHINOOK          N/A     81  57  44 W10G16    29.88F                  
FORT BENTON      N/A     86  57  37 SW16G23   29.93F                  
--------------------------------

MTZ017.020-022.027-061-062-301700-
NORTHEAST MONTANA
  
CITY           SKY/WX    TMP DP  RH WIND       PRES   REMARKS
JORDAN           N/A     81  57  43 SW8       29.89F                  
SIDNEY         PTSUNNY   81  63  54 E10       29.90F                  
WOLF POINT     HAZE      79  60  52 E12       29.88F VSB 1            
MALTA            N/A     80  51  36 CALM      29.85F                  
PLENTYWOOD       N/A     64  61  88 NE12      29.93F VSB 1            
POPLAR           N/A     79  57  47 E16       29.88F                  
--------------------------------

MTZ028.42-056.058-301700-
SOUTHCENTRAL AND SOUTHEAST MONTANA
  
CITY           SKY/WX    TMP DP  RH WIND       PRES   REMARKS
BAKER          CLOUDY    71  63  75 SE10      29.93S                  
BILLINGS       CLOUDY    75  59  57 SW9       30.01R                  
LIVINGSTON     MOSUNNY   80  58  46 W13G21    30.11F                  
MILES CITY     PTSUNNY   79  61  53 VRB5      29.90F HAZE             
BIG TIMBER       N/A     75  57  53 SW21      30.09R                  
EKALAKA          N/A     80  58  46 CALM      29.93S                  
FORSYTH          N/A     81  57  44 W10       29.90F                  
LAUREL           N/A     76  58  53 S9        30.00F                  
ROUNDUP          N/A     81  56  42 SW9       29.90S                  
--------------------------------

REGIONAL REPORTS...DAKOTAS
  
CITY           SKY/WX    TMP DP  RH WIND       PRES   REMARKS
WILLISTON      PTSUNNY   81  58  45 NE10      29.92F HAZE             
MINOT          CLOUDY    65  63  93 E5        29.94S FOG              
DICKINSON      CLOUDY    69  63  81 E8        29.93F HAZE             
BEACH          FAIR      72  66  83 SE10      29.92F                  
CROSBY         FAIR      64  64 100 E529.95F FOG              
BISMARCK       LGT RAIN  67  64  90 NE5       29.97S FOG              
GRAND FORKS    CLOUDY    69  59  70 CALM      29.95F                  
FARGO          PTSUNNY   70  60  70 E5        29.95F                  
BUFFALO SD       N/A     76  65  68 VRB3      29.86F                  
RAPID CITY     CLOUDY    74  65  73 W5        29.94F                  
--------------------------------

REGIONAL REPORTS...WYOMING/IDAHO/WASHINGTON
  
CITY           SKY/WX    TMP DP  RH WIND       PRES   REMARKS
GILLETTE       CLOUDY    78  57  48 NW5       30.03R                  
SHERIDAN       PTSUNNY   78  59  51 NW7       30.04F                  
BUFFALO WY     PTSUNNY   74  54  49 N15G23    30.10R                  
CODY           PTSUNNY   72  55  56 NE8       30.14S                  
YELLOWSTONE LA   N/A     64  51  62 VRB5      30.39S                  
IDAHO FALLS    CLOUDY    74  57  55 NE5       30.16R                  
SALMON         SUNNY     72  61  68 CALM      30.14F                  
BOISE          SUNNY     83  58  42 W3        30.02R                  
SPOKANE        SUNNY     78  55  44 NE6       30.05S                  
--------------------------------

REGIONAL REPORTS...ALBERTA
  
CITY           SKY/WX    TMP DP  RH WIND       PRES   REMARKS
EDMONTON       CLOUDY    61  54  77 E5        30.01R                  
CALGARY        MOSUNNY   66  57  72 N21G28    30.02R                  
LETHBRIDGE     MOSUNNY   73  55  53 W20       29.97R                  
MEDICINE HAT   MOSUNNY   72  61  68 W10G18    29.88S SMOKE            
WATERTON GATE    N/A     75  48  38 W13         N/A                   
CARDSTON         N/A     73  57  56 NW9         N/A                   
MILK RIVER       N/A     77  50  38 NW22G31     N/A                   
ONEFOUR          N/A     77  48  36 W24G33      N/A                   
--------------------------------

REGIONAL REPORTS...SASKATCHEWAN
  
CITY           SKY/WX    TMP DP  RH WIND       PRES   REMARKS
SWIFT CURRENT  SUNNY     66  52  59 SE18      29.91F HAZE             
REGINA         LGT RAIN  63  61  94 S8        29.95F VSB 5/8          
SASKATOON        N/A     66  57  72 SW10      29.95S SMOKE            
CYPRESS HILLS    N/A     66  46  48 S7          N/A                   
VAL MARIE        N/A     75  50  41 E8          N/A                   
ASSINIBOIA       N/A     61  61 100 N3          N/A                   
--------------------------------